GW0203 Weather Reports


time (UTC)temp
F
wind
direction
speed
knots
gust
knots
rain 1hr
in
rain 24hr
in
rain mn
in
humidity
%
barometer
mb
20260904180625 86 0 2.6 7.0 0.00 0.00 0.00 54 1007.2
20260904175123 85 345 0.9 7.8 0.00 0.00 0.00 55 1007.3
20260904173621 86 26 0.9 6.1 0.00 0.00 0.00 54 1007.3
20260904172117 84 339 3.5 9.6 0.00 0.00 0.00 56 1007.6
20260904170616 85 54 0.9 5.2 0.00 0.00 0.00 57 1007.5
20260904165115 83 262 0.0 6.1 0.00 0.00 0.00 60 1007.5
20260904163612 83 10 4.3 7.0 0.00 0.00 0.00 60 1007.7
20260904162108 82 0 0.9 5.2 0.00 0.00 0.00 63 1007.7
20260904160606 82 173 0.0 7.8 0.00 0.00 0.00 62 1007.8
20260904155102 82 350 1.7 7.0 0.00 0.00 0.00 66 1008.0
20260904153601 82 105 0.9 6.1 0.00 0.00 0.00 66 1008.2
20260904152100 81 0 2.6 7.8 0.00 0.00 0.00 67 1008.1
20260904150555 80 322 4.3 8.7 0.00 0.00 0.00 69 1008.1
20260904145050 81 90 1.7 11.3 0.00 0.00 0.00 67 1008.1
20260904143549 81 293 2.6 4.3 0.00 0.00 0.00 68 1008.0
20260904142048 80 116 0.0 4.3 0.00 0.00 0.00 74 1008.1
20260904140545 78 6 5.2 7.8 0.00 0.00 0.00 81 1008.3
20260904135041 77 352 2.6 4.3 0.00 0.00 0.00 85 1008.3
20260904133537 76 233 1.7 3.5 0.00 0.00 0.00 89 1008.6
20260904132033 75 357 2.6 4.3 0.00 0.00 0.00 92 1008.7
20260904130528 75 359 0.0 5.2 0.00 0.00 0.00 91 1008.7
20260904125026 74 5 0.0 4.3 0.00 0.00 0.00 93 1008.5
20260904123522 73 235 4.3 4.3 0.00 0.00 0.00 94 1008.8
20260904122019 73 344 2.6 3.5 0.00 0.00 0.00 97 1009.0
20260904120518 73 220 1.7 2.6 0.00 0.00 0.00 99 1008.7
20260904115014 72 3 2.6 2.6 0.00 0.00 0.00 99 1008.7
20260904113510 71 246 0.0 2.6 0.00 0.00 0.00 99 1009.1
20260904112006 71 20 0.0 1.7 0.00 0.00 0.00 99 1008.8
20260904110503 71 180 0.0 2.6 0.00 0.00 0.00 99 1008.8
20260904104959 71 195 0.0 1.7 0.00 0.00 0.00 99 1008.8
20260904103457 70 172 0.0 1.7 0.00 0.00 0.00 99 1008.5
20260904101955 70 350 0.0 1.7 0.00 0.00 0.00 99 1008.5
20260904100455 70 195 0.0 2.6 0.00 0.00 0.00 99 1008.5
20260904094950 70 99 0.0 1.7 0.00 0.00 0.00 99 1008.3
20260904093449 70 15 0.0 0.0 0.00 0.00 0.00 99 1008.4
20260904091948 70 15 0.0 0.0 0.00 0.00 0.00 99 1008.3
20260904090445 70 15 0.0 0.9 0.00 0.00 0.00 99 1008.1
20260904084941 70 151 0.0 0.9 0.00 0.00 0.00 99 1008.3
20260904083440 70 90 0.0 0.9 0.00 0.00 0.00 99 1008.3
20260904081937 70 195 0.0 0.0 0.00 0.00 0.00 99 1008.3
20260904080435 70 170 0.0 1.7 0.00 0.00 0.00 99 1008.4
20260904074931 70 145 0.0 0.0 0.00 0.00 0.00 99 1008.2
20260904073429 70 90 0.0 0.0 0.00 0.00 0.00 99 1008.5
20260904071927 71 180 0.9 0.9 0.00 0.00 0.00 99 1008.8
20260904070422 71 175 0.0 1.7 0.00 0.00 0.00 99 1008.9
20260904064918 71 180 0.0 0.9 0.00 0.00 0.00 99 1008.9
20260904063412 71 180 0.0 2.6 0.00 0.00 0.00 99 1009.2
20260904061910 70 0 0.0 0.0 0.00 0.00 0.00 99 1009.1
20260904060410 70 54 0.0 1.7 0.00 0.00 0.00 99 1009.3
20260904054908 70 290 1.7 2.6 0.00 0.00 0.00 99 1009.3
20260904053404 70 194 2.6 2.6 0.00 0.00 0.00 99 1009.4
20260904051904 70 159 0.0 1.7 0.00 0.00 0.00 99 1009.8
20260904050402 71 168 1.7 2.6 0.00 0.00 0.00 99 1009.7
20260904044902 71 189 4.3 4.3 0.00 0.00 0.00 99 1009.9
20260904043358 71 175 0.0 2.6 0.00 0.00 0.00 99 1010.2
20260904041855 71 166 0.0 0.0 0.00 0.00 0.00 99 1010.3
20260904040353 71 270 0.0 1.7 0.00 0.00 0.00 99 1010.4
20260904034851 71 193 0.0 2.6 0.00 0.24 0.24 99 1010.1
20260904033350 71 148 0.0 1.7 0.00 0.24 0.24 99 1010.3
20260904031845 72 324 0.0 2.6 0.00 0.24 0.24 99 1010.5
20260904030344 72 190 1.7 1.7 0.00 0.24 0.24 99 1010.3
20260904024841 72 172 0.0 1.7 0.00 0.24 0.24 99 1010.3
20260904023340 72 189 4.3 4.3 0.00 0.24 0.24 99 1010.6
20260904021838 73 229 1.7 2.6 0.00 0.24 0.24 98 1010.8
20260904020335 73 209 0.9 2.6 0.00 0.24 0.24 98 1010.9
20260904014833 73 170 0.0 4.3 0.00 0.24 0.24 98 1010.9
20260904013332 73 255 0.0 2.6 0.00 0.24 0.24 98 1011.1
20260904011827 73 204 1.7 2.6 0.00 0.24 0.24 98 1011.3
20260904010326 73 255 0.0 1.7 0.00 0.24 0.24 97 1011.3
20260904004823 73 270 0.9 3.5 0.00 0.24 0.24 97 1011.1
20260904003322 73 206 0.9 3.5 0.00 0.24 0.24 97 1011.0
20260904001817 74 210 1.7 1.7 0.00 0.24 0.24 96 1010.7
20260904000313 74 229 0.0 1.7 0.00 0.24 0.24 95 1010.2
20260903234809 74 206 0.0 3.5 0.00 0.24 0.24 95 1010.2
20260903233303 75 182 2.6 2.6 0.00 0.24 0.24 94 1010.3
20260903231803 75 194 0.0 2.6 0.00 0.24 0.24 93 1010.2
20260903230259 76 186 0.0 1.7 0.00 0.24 0.24 92 1010.2
20260903224754 77 191 1.7 2.6 0.00 0.24 0.24 90 1010.4
20260903223249 78 203 0.9 2.6 0.00 0.24 0.24 87 1010.2
20260903221744 80 15 0.9 4.3 0.00 0.24 0.24 85 1010.3
20260903220242 81 255 0.0 5.2 0.00 0.24 0.24 84 1010.4
20260903214741 83 227 2.6 2.6 0.00 0.24 0.24 79 1010.3
20260903213239 82 189 3.5 3.5 0.00 0.24 0.24 80 1010.1
20260903211736 79 230 2.6 4.3 0.00 0.24 0.24 84 1010.4
20260903210236 81 187 0.9 2.6 0.00 0.24 0.24 82 1010.4
20260903204736 80 321 3.5 6.1 0.00 0.24 0.24 83 1010.3
20260903203235 80 321 0.0 4.3 0.00 0.24 0.24 82 1010.3
20260903201730 81 188 1.7 4.3 0.00 0.24 0.24 83 1010.7
20260903200226 82 198 7.0 8.7 0.00 0.24 0.24 80 1010.7
20260903194722 82 181 4.3 4.3 0.00 0.24 0.24 81 1010.7
20260903193219 83 239 1.7 2.6 0.00 0.24 0.24 79 1010.9
20260903191719 80 335 4.3 6.1 0.00 0.24 0.24 81 1011.2
20260903190214 80 151 0.0 6.1 0.00 0.24 0.24 81 1011.3
20260903184712 80 261 0.9 2.6 0.00 0.24 0.24 84 1011.6
20260903183208 80 254 1.7 5.2 0.00 0.24 0.24 83 1011.5